Terminal Aerodrome Forecast
Issued by NWS Northern Indiana

Home | Current Version | Previous Version | Text Only | Print | Product List | Glossary On
Versions: 1 2 3 4 5 6 7 8 9 10 11 12 13 14 15 16 17 18
000
FTUS43 KIWX 012300
TAFFWA
TAF
KFWA 012324Z 0200/0224 06014G25KT 1/2SM SN BLSN OVC006
      TEMPO 0200/0204 1SM -SN BLSN OVC010
     FM020400 02016G26KT 2SM -SN BLSN OVC010
     FM021200 34014G22KT P6SM BKN020=

USA.gov is the U.S. government's official web portal to all federal, state and local government web resources and services.